EW0531 Weather Reports


Display with metric or nautical units.
time (UTC)temp
F
wind
direction
speed
MPH
gust
MPH
rain 1hr
in
rain 24hr
in
rain mn
in
humidity
%
barometer
mb
20260905113101 68 309 3.0 13.0 0.00 0.00 0.00 56 1025.2
20260905112537 68 277 4.0 13.0 0.00 0.00 0.00 56 1025.3
20260905112039 68 309 5.0 15.0 0.00 0.00 0.00 57 1025.3
20260905111606 67 316 3.0 15.0 0.00 0.00 0.00 58 1025.3
20260905111037 67 319 7.0 15.0 0.00 0.00 0.00 58 1025.4
20260905110536 67 336 3.0 15.0 0.00 0.00 0.00 58 1025.3
20260905110105 66 317 6.0 15.0 0.00 0.00 0.00 57 1025.3
20260905105536 67 308 8.0 15.0 0.00 0.00 0.00 57 1025.3
20260905105035 67 337 3.0 9.0 0.00 0.00 0.00 58 1025.2
20260905104600 66 0 4.0 11.0 0.00 0.00 0.00 58 1025.2
20260905104039 67 317 6.0 11.0 0.00 0.00 0.00 58 1025.3
20260905103537 67 329 6.0 11.0 0.00 0.00 0.00 58 1025.3
20260905103104 67 13 3.0 12.0 0.00 0.00 0.00 58 1025.3
20260905102536 66 282 3.0 12.0 0.00 0.00 0.00 59 1025.4
20260905102036 66 360 5.0 12.0 0.00 0.00 0.00 59 1025.5
20260905101618 66 5 5.0 10.0 0.00 0.00 0.00 59 1025.5
20260905101038 66 286 4.0 10.0 0.00 0.00 0.00 60 1025.5
20260905100536 66 250 5.0 10.0 0.00 0.00 0.00 60 1025.4
20260905100107 66 302 5.0 10.0 0.00 0.00 0.00 59 1025.3
20260905095537 66 0 3.0 11.0 0.00 0.00 0.00 60 1025.4
20260905095033 66 301 4.0 11.0 0.00 0.00 0.00 60 1025.4
20260905094558 66 317 2.0 9.0 0.00 0.00 0.00 62 1025.3
20260905094040 65 337 3.0 10.0 0.00 0.00 0.00 62 1025.1
20260905093537 65 305 5.0 10.0 0.00 0.00 0.00 62 1025.1
20260905093101 65 296 3.0 9.0 0.00 0.00 0.00 61 1025.1
20260905092537 64 238 4.0 11.0 0.00 0.00 0.00 61 1025.2
20260905092038 64 287 4.0 11.0 0.00 0.00 0.00 61 1025.2
20260905091609 64 326 4.0 10.0 0.00 0.00 0.00 62 1025.2
20260905091036 64 269 3.0 11.0 0.00 0.00 0.00 62 1025.1
20260905090536 64 15 4.0 12.0 0.00 0.00 0.00 62 1025.1
20260905090104 64 309 4.0 12.0 0.00 0.00 0.00 64 1025.1
20260905085535 64 352 3.0 9.0 0.00 0.00 0.00 64 1025.0
20260905085036 64 327 3.0 7.0 0.00 0.00 0.00 65 1024.9
20260905084616 64 316 2.0 9.0 0.00 0.00 0.00 67 1024.8
20260905084035 63 345 4.0 9.0 0.00 0.00 0.00 68 1024.8
20260905083537 63 336 3.0 8.0 0.00 0.00 0.00 69 1024.8
20260905083056 63 303 2.0 7.0 0.00 0.00 0.00 71 1024.8
20260905082536 62 0 1.0 7.0 0.00 0.00 0.00 72 1024.7
20260905082037 62 296 2.0 4.0 0.00 0.00 0.00 74 1024.7
20260905081557 62 232 0.0 3.0 0.00 0.00 0.00 77 1024.6
20260905081038 62 0 0.0 3.0 0.00 0.00 0.00 78 1024.5
20260905080537 61 0 1.0 4.0 0.00 0.00 0.00 78 1024.5
20260905080058 61 232 1.0 4.0 0.00 0.00 0.00 79 1024.5
20260905075539 61 236 1.0 3.0 0.00 0.03 0.00 79 1024.4
20260905075036 60 0 1.0 4.0 0.00 0.03 0.00 81 1024.4
20260905074559 60 264 1.0 4.0 0.00 0.03 0.00 81 1024.4
20260905074036 60 0 0.0 3.0 0.00 0.03 0.00 83 1024.3
20260905073536 59 0 1.0 3.0 0.00 0.03 0.00 83 1024.3
20260905073102 58 0 0.0 2.0 0.00 0.03 0.00 84 1024.3
20260905072536 58 0 0.0 2.0 0.00 0.03 0.00 84 1024.3
20260905072037 58 0 0.0 2.0 0.00 0.03 0.00 84 1024.3
20260905071601 58 0 0.0 2.0 0.00 0.03 0.00 84 1024.3
20260905071036 57 0 0.0 1.0 0.00 0.03 0.00 85 1024.3
20260905070537 57 0 0.0 1.0 0.00 0.03 0.00 85 1024.2
20260905070110 57 0 0.0 0.0 0.00 0.03 0.00 85 1024.1
20260905065540 57 0 0.0 0.0 0.00 0.03 0.00 85 1024.0
20260905065036 56 0 0.0 0.0 0.00 0.03 0.00 86 1024.0
20260905064559 56 0 0.0 0.0 0.00 0.03 0.00 86 1023.9
20260905064037 56 0 0.0 0.0 0.00 0.03 0.00 86 1023.9
20260905063536 56 0 0.0 0.0 0.00 0.03 0.00 86 1023.9
20260905063102 56 0 0.0 0.0 0.00 0.03 0.00 86 1023.9
20260905062536 55 0 0.0 0.0 0.00 0.03 0.00 87 1023.9
20260905062034 55 0 0.0 0.0 0.00 0.03 0.00 87 1023.8
20260905061617 55 0 0.0 0.0 0.00 0.03 0.00 87 1023.9
20260905061036 55 0 0.0 0.0 0.00 0.03 0.00 87 1023.8
20260905060536 55 0 0.0 0.0 0.00 0.03 0.00 87 1023.8
20260905060057 55 0 0.0 0.0 0.00 0.03 0.00 87 1023.8
20260905055538 54 0 0.0 0.0 0.00 0.03 0.00 87 1023.7
20260905055037 54 0 0.0 0.0 0.00 0.03 0.00 87 1023.7
20260905054554 54 0 0.0 0.0 0.00 0.03 0.00 87 1023.6
20260905054036 54 0 0.0 0.0 0.00 0.03 0.00 87 1023.7
20260905053539 54 0 0.0 0.0 0.00 0.03 0.00 88 1023.5
20260905053105 54 0 0.0 0.0 0.00 0.03 0.00 88 1023.5
20260905052537 54 0 0.0 0.0 0.00 0.03 0.00 88 1023.5
20260905052037 54 0 0.0 0.0 0.00 0.03 0.00 88 1023.3
20260905051600 54 0 0.0 0.0 0.00 0.03 0.00 88 1023.3
20260905051037 54 0 0.0 0.0 0.00 0.03 0.00 87 1023.3
20260905050540 54 0 0.0 0.0 0.00 0.03 0.00 87 1023.1
20260905050057 54 0 0.0 0.0 0.00 0.03 0.00 88 1023.1
20260905045536 54 0 0.0 0.0 0.00 0.03 0.00 87 1023.1
20260905045039 54 0 0.0 0.0 0.00 0.03 0.00 87 1023.1
20260905044557 54 0 0.0 0.0 0.00 0.03 0.00 87 1023.1
20260905044039 54 0 0.0 0.0 0.00 0.03 0.00 87 1023.0
20260905043536 53 0 0.0 0.0 0.00 0.03 0.00 88 1023.1
20260905043106 53 0 0.0 0.0 0.00 0.03 0.00 87 1023.1
20260905042536 53 0 0.0 0.0 0.00 0.03 0.00 87 1023.0
20260905042037 53 0 0.0 0.0 0.00 0.03 0.00 87 1022.9
20260905041558 53 0 0.0 0.0 0.00 0.03 0.00 87 1022.8
20260905041036 53 0 0.0 0.0 0.00 0.03 0.00 87 1022.8
20260905040536 53 0 0.0 0.0 0.00 0.03 0.00 87 1022.8
20260905040100 53 0 0.0 0.0 0.00 0.03 0.00 86 1022.6
20260905035536 53 0 0.0 0.0 0.00 0.03 0.00 86 1022.7
20260905035036 53 0 0.0 0.0 0.00 0.03 0.00 86 1022.6
20260905034603 53 0 0.0 0.0 0.00 0.03 0.00 86 1022.6
20260905034039 54 0 0.0 0.0 0.00 0.03 0.00 86 1022.4
20260905033537 54 0 0.0 0.0 0.00 0.03 0.00 86 1022.5
20260905033104 54 0 0.0 0.0 0.00 0.03 0.00 86 1022.5
20260905032537 54 0 0.0 0.0 0.00 0.03 0.00 85 1022.5
20260905032037 54 0 0.0 0.0 0.00 0.03 0.00 85 1022.5
20260905031604 54 0 0.0 2.0 0.00 0.03 0.00 85 1022.4
20260905031036 54 0 0.0 3.0 0.00 0.03 0.00 85 1022.5
20260905030536 54 0 0.0 3.0 0.00 0.03 0.00 85 1022.4
20260905030107 54 0 0.0 0.0 0.00 0.03 0.00 85 1022.3
20260905025536 54 0 0.0 0.0 0.00 0.04 0.00 85 1022.3
20260905025033 54 0 0.0 0.0 0.00 0.04 0.00 84 1022.3
20260905024632 54 0 0.0 1.0 0.00 0.04 0.00 84 1022.2
20260905024040 55 0 0.0 1.0 0.00 0.04 0.00 84 1022.1
20260905023541 55 0 0.0 1.0 0.00 0.04 0.00 84 1022.1
20260905023100 55 0 0.0 4.0 0.00 0.04 0.00 85 1022.0
20260905022536 55 0 0.0 4.0 0.00 0.04 0.00 85 1021.8
20260905022038 55 263 0.0 4.0 0.00 0.04 0.00 85 1021.8
20260905021556 55 0 1.0 4.0 0.00 0.04 0.00 85 1021.8
20260905021036 55 277 0.0 6.0 0.00 0.04 0.00 85 1021.8
20260905020536 54 262 1.0 6.0 0.00 0.04 0.00 86 1021.7
20260905015538 54 232 0.0 3.0 0.00 0.04 0.00 86 1021.7
20260905015037 53 0 0.0 3.0 0.00 0.04 0.00 86 1021.6
20260905014559 53 232 0.0 3.0 0.00 0.04 0.00 86 1021.6
20260905014037 53 0 0.0 2.0 0.00 0.04 0.00 86 1021.6
20260905013537 53 0 0.0 0.0 0.00 0.04 0.00 86 1021.7
20260905013055 53 0 0.0 0.0 0.00 0.04 0.00 85 1021.7
20260905012536 53 0 0.0 0.0 0.00 0.04 0.00 85 1021.7
20260905012036 53 0 0.0 0.0 0.00 0.04 0.00 85 1021.6
20260905011603 53 0 0.0 0.0 0.00 0.04 0.00 85 1021.6
20260905011039 53 0 0.0 0.0 0.00 0.04 0.00 85 1021.5
20260905010537 53 0 0.0 0.0 0.00 0.04 0.00 84 1021.5
20260905010101 53 0 0.0 0.0 0.00 0.04 0.00 84 1021.6
20260905005536 53 0 0.0 0.0 0.00 0.04 0.00 84 1021.6
20260905005037 53 0 0.0 0.0 0.00 0.04 0.00 84 1021.7
20260905004602 54 0 0.0 0.0 0.00 0.04 0.00 83 1021.6
20260905004036 54 0 0.0 0.0 0.00 0.04 0.00 83 1021.7
20260905003537 54 0 0.0 0.0 0.00 0.04 0.00 83 1021.6
20260905003105 54 0 0.0 0.0 0.00 0.04 0.00 83 1021.6
20260905002536 54 0 0.0 0.0 0.00 0.04 0.00 83 1021.6
20260905002036 55 0 0.0 0.0 0.00 0.04 0.00 83 1021.6
20260905001605 55 0 0.0 0.0 0.00 0.04 0.00 82 1021.6
20260905001042 55 0 0.0 0.0 0.00 0.04 0.00 81 1021.6
20260905000537 55 0 0.0 0.0 0.00 0.04 0.00 81 1021.6
20260905000059 55 0 0.0 0.0 0.00 0.04 0.00 81 1021.5
20260904235536 56 0 0.0 3.0 0.00 0.05 0.00 81 1021.5
20260904235036 56 0 0.0 3.0 0.00 0.05 0.00 81 1021.4
20260904234556 56 0 0.0 3.0 0.00 0.05 0.00 81 1021.4
20260904234036 56 0 0.0 3.0 0.00 0.05 0.00 81 1021.3
20260904233536 56 0 0.0 3.0 0.00 0.05 0.00 81 1021.3
20260904233102 56 232 0.0 3.0 0.00 0.05 0.00 81 1021.3
20260904232536 56 0 0.0 3.0 0.00 0.05 0.00 81 1021.3
20260904232041 56 0 0.0 4.0 0.00 0.05 0.00 81 1021.3
20260904231605 56 240 0.0 4.0 0.00 0.05 0.00 81 1021.2
20260904231039 56 0 0.0 3.0 0.00 0.05 0.00 81 1021.1
20260904230537 57 0 1.0 3.0 0.00 0.05 0.00 80 1021.1
20260904230101 57 240 1.0 3.0 0.00 0.05 0.00 80 1021.1
20260904225537 57 0 0.0 3.0 0.00 0.05 0.05 80 1021.2
20260904225037 57 0 0.0 4.0 0.00 0.05 0.05 80 1021.1
20260904224559 57 0 0.0 4.0 0.00 0.05 0.05 80 1021.0
20260904224036 57 267 2.0 4.0 0.00 0.05 0.05 80 1021.0
20260904223537 57 225 1.0 4.0 0.00 0.05 0.05 80 1020.9
20260904223054 57 254 0.0 3.0 0.00 0.05 0.05 79 1020.8
20260904222536 57 254 1.0 3.0 0.00 0.05 0.05 79 1020.7
20260904222037 57 0 1.0 3.0 0.00 0.05 0.05 79 1020.8
20260904221607 58 220 0.0 2.0 0.00 0.05 0.05 78 1020.8
20260904221037 58 0 0.0 3.0 0.00 0.05 0.05 78 1020.7
20260904220537 58 0 0.0 3.0 0.00 0.05 0.05 78 1020.7
20260904220104 58 220 1.0 6.0 0.00 0.05 0.05 78 1020.7
20260904215537 58 220 1.0 6.0 0.00 0.05 0.05 78 1020.7
20260904215037 58 242 2.0 6.0 0.00 0.05 0.05 78 1020.7
20260904214602 58 232 2.0 6.0 0.00 0.05 0.05 77 1020.7
20260904214036 58 254 2.0 6.0 0.00 0.05 0.05 77 1020.6
20260904213536 59 248 2.0 4.0 0.00 0.05 0.05 77 1020.6
20260904213058 59 248 2.0 4.0 0.00 0.05 0.05 77 1020.7
20260904212535 59 246 2.0 4.0 0.00 0.05 0.05 76 1020.6
20260904212036 59 273 2.0 4.0 0.00 0.05 0.05 76 1020.6
20260904211604 59 258 1.0 4.0 0.00 0.05 0.05 76 1020.5
20260904211036 59 0 2.0 4.0 0.00 0.05 0.05 76 1020.4
20260904210537 60 258 1.0 3.0 0.00 0.05 0.05 76 1020.3
20260904210107 60 238 1.0 4.0 0.00 0.05 0.05 76 1020.4
20260904205537 60 229 2.0 4.0 0.00 0.05 0.05 76 1020.3
20260904205036 60 213 2.0 4.0 0.00 0.05 0.05 75 1020.3
20260904204602 60 227 2.0 4.0 0.00 0.05 0.05 75 1020.3
20260904204036 60 234 2.0 4.0 0.00 0.05 0.05 75 1020.3
20260904203537 60 221 1.0 5.0 0.00 0.05 0.05 74 1020.1
20260904203100 60 240 2.0 7.0 0.00 0.05 0.05 74 1020.2
20260904202537 61 224 2.0 7.0 0.00 0.05 0.05 74 1020.1
20260904202037 61 246 2.0 6.0 0.00 0.05 0.05 74 1020.0
20260904201601 61 248 2.0 4.0 0.00 0.05 0.05 73 1020.0
20260904201036 61 242 2.0 4.0 0.00 0.05 0.05 73 1019.9
20260904200536 61 254 1.0 3.0 0.00 0.05 0.05 73 1020.0
20260904200058 61 262 1.0 5.0 0.00 0.05 0.05 72 1019.8
20260904195536 62 260 2.0 5.0 0.00 0.05 0.05 72 1019.8
20260904195034 62 252 1.0 4.0 0.00 0.05 0.05 72 1019.7
20260904194604 62 288 2.0 8.0 0.00 0.05 0.05 71 1019.8
20260904194038 62 267 2.0 8.0 0.00 0.05 0.05 71 1019.7
20260904193537 63 269 2.0 8.0 0.00 0.05 0.05 71 1019.7
20260904193058 63 264 2.0 8.0 0.00 0.05 0.05 70 1019.6
20260904192537 63 275 3.0 7.0 0.00 0.05 0.05 70 1019.7
20260904192039 63 260 2.0 7.0 0.00 0.05 0.05 70 1019.5
20260904191607 63 288 3.0 7.0 0.00 0.05 0.05 69 1019.4
20260904191038 64 291 2.0 5.0 0.00 0.05 0.05 69 1019.4
20260904190535 64 321 2.0 8.0 0.00 0.05 0.05 69 1019.3
20260904190056 64 262 3.0 9.0 0.00 0.05 0.05 68 1019.2
20260904185533 64 325 4.0 11.0 0.00 0.05 0.05 68 1019.1
20260904185034 64 249 4.0 11.0 0.00 0.05 0.05 67 1019.0
20260904184606 64 263 3.0 11.0 0.00 0.05 0.05 67 1019.0
20260904184037 65 268 5.0 8.0 0.00 0.05 0.05 67 1018.9
20260904183537 65 298 3.0 11.0 0.00 0.05 0.05 67 1018.9
20260904183057 65 296 3.0 11.0 0.00 0.05 0.05 67 1018.8
20260904182536 65 297 4.0 8.0 0.00 0.05 0.05 67 1018.8
20260904182033 65 271 4.0 10.0 0.00 0.05 0.05 67 1018.6
20260904181555 65 261 3.0 10.0 0.00 0.05 0.05 67 1018.6
20260904181037 65 265 4.0 10.0 0.00 0.05 0.05 66 1018.5
20260904180537 65 289 4.0 9.0 0.00 0.05 0.05 66 1018.7
20260904180110 65 257 3.0 9.0 0.00 0.05 0.05 66 1018.5
20260904175536 65 274 4.0 9.0 0.00 0.05 0.05 65 1018.5
20260904175037 65 267 4.0 9.0 0.00 0.05 0.05 65 1018.6
20260904174559 66 304 3.0 8.0 0.00 0.05 0.05 64 1018.5
20260904174038 66 256 4.0 10.0 0.00 0.05 0.05 64 1018.5
20260904173536 66 0 4.0 10.0 0.00 0.05 0.05 63 1018.4
20260904173105 66 330 5.0 14.0 0.00 0.05 0.05 63 1018.3
20260904172534 66 272 4.0 14.0 0.00 0.05 0.05 63 1018.4
20260904172036 66 286 5.0 14.0 0.00 0.05 0.05 62 1018.3
20260904171601 66 289 4.0 9.0 0.00 0.05 0.05 63 1018.1
20260904171037 66 282 5.0 9.0 0.00 0.05 0.05 62 1018.2
20260904170538 66 234 3.0 11.0 0.00 0.05 0.05 62 1018.1
20260904170101 66 286 5.0 11.0 0.00 0.05 0.05 61 1018.1
20260904165537 67 272 4.0 12.0 0.00 0.05 0.05 61 1018.3
20260904165039 67 276 6.0 12.0 0.00 0.05 0.05 61 1018.1
20260904164603 67 244 6.0 12.0 0.00 0.05 0.05 61 1018.0
20260904164037 67 242 4.0 10.0 0.00 0.05 0.05 61 1018.2
20260904163538 67 261 5.0 12.0 0.00 0.05 0.05 61 1018.2
20260904163109 67 276 5.0 14.0 0.00 0.05 0.05 61 1018.0
20260904162536 67 220 5.0 14.0 0.00 0.05 0.05 61 1018.1
20260904162033 67 282 7.0 14.0 0.00 0.05 0.05 61 1018.0
20260904161603 68 267 5.0 10.0 0.00 0.05 0.05 61 1018.0
20260904161033 68 309 5.0 11.0 0.00 0.05 0.05 61 1018.1
20260904160537 68 262 4.0 11.0 0.00 0.05 0.05 61 1018.0
20260904160100 68 275 5.0 10.0 0.00 0.05 0.05 61 1018.0
20260904155537 68 250 3.0 16.0 0.00 0.05 0.05 61 1017.8
20260904155036 68 292 7.0 16.0 0.00 0.05 0.05 60 1017.7
20260904154554 68 240 4.0 12.0 0.00 0.05 0.05 60 1017.6
20260904154036 68 270 6.0 12.0 0.00 0.05 0.05 60 1017.7
20260904153536 68 275 4.0 15.0 0.00 0.05 0.05 60 1017.7
20260904153107 68 261 3.0 15.0 0.00 0.05 0.05 60 1017.6
20260904152534 68 231 7.0 14.0 0.00 0.05 0.05 59 1017.6
20260904152033 68 271 6.0 14.0 0.00 0.05 0.05 59 1017.6
20260904151600 68 294 6.0 18.0 0.00 0.05 0.05 60 1017.5
20260904151034 68 304 8.0 18.0 0.00 0.05 0.05 59 1017.6
20260904150538 68 275 9.0 13.0 0.00 0.05 0.05 60 1017.8
20260904150058 69 314 6.0 12.0 0.00 0.05 0.05 60 1017.5
20260904145537 69 311 4.0 12.0 0.00 0.05 0.05 62 1017.5
20260904145033 69 272 3.0 7.0 0.00 0.05 0.05 67 1017.4
20260904144555 68 270 2.0 7.0 0.00 0.05 0.05 67 1017.1
20260904144034 68 250 3.0 11.0 0.00 0.05 0.05 68 1017.2
20260904143534 68 267 3.0 11.0 0.00 0.05 0.05 68 1017.3
20260904143105 68 294 4.0 13.0 0.00 0.05 0.05 68 1017.2
20260904142534 68 323 4.0 13.0 0.00 0.05 0.05 68 1017.1
20260904142033 68 308 6.0 13.0 0.00 0.05 0.05 69 1017.2
20260904141617 68 300 5.0 14.0 0.00 0.05 0.05 68 1017.1
20260904141038 68 300 8.0 14.0 0.00 0.05 0.05 67 1017.3
20260904140536 69 315 7.0 17.0 0.00 0.05 0.05 67 1017.4
20260904140100 69 318 5.0 17.0 0.00 0.05 0.05 65 1017.2
20260904135537 69 298 8.0 17.0 0.00 0.05 0.05 62 1016.9
20260904135037 70 335 6.0 16.0 0.00 0.05 0.05 62 1016.8
20260904134600 70 292 7.0 16.0 0.00 0.05 0.05 62 1016.8
20260904134036 70 299 6.0 15.0 0.00 0.05 0.05 61 1016.8
20260904133534 71 272 6.0 16.0 0.00 0.05 0.05 60 1017.0
20260904133103 71 291 7.0 16.0 0.00 0.05 0.05 59 1017.0
20260904132534 71 244 8.0 16.0 0.00 0.05 0.05 59 1016.8
20260904132033 71 295 6.0 16.0 0.00 0.05 0.05 59 1016.6
20260904131635 72 298 7.0 14.0 0.00 0.05 0.05 59 1016.6
20260904131033 72 269 7.0 14.0 0.00 0.05 0.05 61 1016.6
20260904130536 71 300 5.0 15.0 0.00 0.05 0.05 62 1016.4
20260904130057 71 337 8.0 15.0 0.00 0.05 0.05 61 1016.5
20260904125537 72 296 8.0 16.0 0.00 0.05 0.05 61 1016.5
20260904125036 72 284 7.0 16.0 0.00 0.05 0.05 62 1016.5
20260904124554 72 312 9.0 16.0 0.00 0.05 0.05 62 1016.6
20260904124033 72 235 9.0 16.0 0.00 0.05 0.05 60 1016.5
20260904123534 73 257 7.0 17.0 0.00 0.05 0.05 61 1016.6
20260904123109 73 317 9.0 17.0 0.00 0.05 0.05 61 1016.5
20260904122540 72 263 9.0 21.0 0.00 0.05 0.05 63 1016.3
20260904122037 72 309 9.0 21.0 0.00 0.05 0.05 62 1016.2
20260904121556 73 292 8.0 21.0 0.00 0.05 0.05 62 1016.2
20260904121036 72 231 9.0 22.0 0.00 0.05 0.05 62 1016.1
20260904120538 72 316 9.0 22.0 0.00 0.05 0.05 60 1016.1
20260904120108 72 255 8.0 17.0 0.00 0.05 0.05 62 1016.1
20260904115534 71 262 5.0 15.0 0.00 0.05 0.05 65 1016.0
20260904115034 71 242 7.0 15.0 0.00 0.05 0.05 66 1015.9
20260904114600 71 241 6.0 15.0 0.00 0.05 0.05 66 1015.9
20260904114034 71 242 5.0 15.0 0.00 0.05 0.05 66 1015.9
20260904113535 71 221 6.0 16.0 0.00 0.05 0.05 65 1015.9